User: anonymous   Login
Location: Unspecified
(0.0000°N, 0.0000°E)
Time: 21:50:42
(UTC+00:00)
Language:

AGILE - Orbit

View from above orbital plane
View from above orbital plane
View from above satellite
View from above satellite

Ground track
Ground track

The orbit data is extracted from the following two-line orbital elements,

1 31135U 07013A   16208.10623312  .00003395  00000-0  80201-4 0  9994
2 31135   2.4673 125.6158 0013596 327.2497  32.6714 15.28335292513713
Epoch (UTC): 26 July 2016 02:32:58
Eccentricity: 0.0013596
inclination: 2.4673°
perigee height: 471 km
apogee height: 490 km
right ascension of ascending node: 125.6158°
argument of perigee: 327.2497°
revolutions per day: 15.28335292
mean anomaly at epoch: 32.6714°
orbit number at epoch: 51371

The dashed part of the orbit path shows where the satellite is in the earth's shadow,  

DLR